TimeMDT,TemperatureF,Dew PointF,Humidity,Sea Level PressureIn,VisibilityMPH,Wind Direction,Wind SpeedMPH,Gust SpeedMPH,PrecipitationIn,Events,Conditions,WindDirDegrees,DateUTC
12:53 AM,53.1,25.0,34,30.12,10.0,SSW,12.7,-,N/A,,Clear,200,2013-04-27 06:53:00
1:53 AM,53.1,26.1,35,30.11,10.0,South,16.1,-,N/A,,Clear,190,2013-04-27 07:53:00
2:53 AM,52.0,26.1,37,30.10,10.0,South,13.8,-,N/A,,Clear,190,2013-04-27 08:53:00
3:53 AM,52.0,26.1,37,30.11,10.0,South,15.0,-,N/A,,Clear,190,2013-04-27 09:53:00
4:53 AM,52.0,27.0,38,30.10,10.0,South,15.0,-,N/A,,Clear,180,2013-04-27 10:53:00
5:53 AM,51.1,27.0,39,30.12,10.0,South,16.1,-,N/A,,Clear,190,2013-04-27 11:53:00
6:53 AM,48.0,28.0,46,30.14,10.0,South,12.7,-,N/A,,Clear,180,2013-04-27 12:53:00
7:53 AM,54.0,30.9,41,30.14,10.0,South,11.5,-,N/A,,Clear,190,2013-04-27 13:53:00
8:53 AM,62.1,33.1,34,30.15,10.0,SSW,10.4,-,N/A,,Clear,200,2013-04-27 14:53:00
9:53 AM,66.0,32.0,28,30.15,10.0,WSW,9.2,-,N/A,,Clear,240,2013-04-27 15:53:00
10:53 AM,69.1,30.0,23,30.15,10.0,West,6.9,-,N/A,,Clear,260,2013-04-27 16:53:00
11:53 AM,72.0,30.9,22,30.14,10.0,WNW,8.1,-,N/A,,Clear,290,2013-04-27 17:53:00
12:53 PM,73.0,32.0,22,30.12,10.0,WNW,6.9,16.1,N/A,,Clear,300,2013-04-27 18:53:00
1:53 PM,75.9,32.0,20,30.08,10.0,WNW,9.2,17.3,N/A,,Clear,300,2013-04-27 19:53:00
2:53 PM,75.9,33.1,21,30.06,10.0,NW,10.4,-,N/A,,Clear,320,2013-04-27 20:53:00
3:53 PM,75.9,30.9,19,30.03,10.0,NW,11.5,-,N/A,,Clear,310,2013-04-27 21:53:00
4:53 PM,77.0,30.9,19,30.01,10.0,WNW,13.8,-,N/A,,Clear,290,2013-04-27 22:53:00
5:53 PM,75.0,30.9,20,30.00,10.0,West,17.3,-,N/A,,Clear,280,2013-04-27 23:53:00
6:53 PM,72.0,30.9,22,30.00,10.0,WNW,11.5,-,N/A,,Clear,290,2013-04-28 00:53:00
7:53 PM,68.0,28.9,23,29.98,10.0,WNW,11.5,-,N/A,,Clear,290,2013-04-28 01:53:00
8:53 PM,57.9,30.0,35,29.98,10.0,SSW,4.6,-,N/A,,Clear,210,2013-04-28 02:53:00
9:53 PM,54.0,30.0,40,29.98,10.0,South,8.1,-,N/A,,Clear,180,2013-04-28 03:53:00
10:53 PM,54.0,30.0,40,29.98,10.0,SSW,8.1,-,N/A,,Clear,200,2013-04-28 04:53:00
11:53 PM,52.0,28.9,41,29.97,10.0,South,10.4,-,N/A,,Clear,180,2013-04-28 05:53:00